Temp
53 55 57 59 58 58 57 55 49 42 47 53 53 57 56 55 53 52 50 47 43 42 41 40 41 42 42 43 43 44 45 46 46 47 47 48 49 50
51 52 56 58 57 57 56 55 54 50 45 53 54 55 55 54 53 51 50 46 44 43 41 40 40 40 40 41 41 42 42 43 44 44 45 47 48 49
49 52 53 57 56 56 55 55 53 52 48 51 55 55 52 50 50 51 50 49 49 44 42 40 39 39 39 39 39 40 40 41 42 43 44 45 46 47
50 53 53 57 55 54 55 51 50 52 50 47 51 51 51 51 49 47 48 49 49 46 42 40 39 39 38 38 38 39 39 40 40 41 41 42 44 45
51 52 53 54 53 53 52 49 52 53 50 48 47 51 51 51 48 48 47 47 49 45 42 41 40 39 39 38 38 38 39 39 39 39 40 40 41 42
50 51 53 53 52 52 52 49 49 49 49 48 47 47 48 49 48 44 44 47 46 48 45 42 40 40 39 40 40 39 39 39 39 39 39 39 39 40
50 54 54 51 47 48 53 52 49 47 47 46 45 45 45 45 44 45 42 43 44 46 45 46 46 46 46 44 43 41 40 39 38 38 39 39 39 39
50 52 54 49 46 41 40 40 44 47 45 43 42 40 43 45 45 43 41 39 36 46 43 41 45 44 45 46 42 39 39 39 38 38 39 39 39 39
51 52 52 54 47 50 41 38 37 37 35 43 40 42 42 44 44 41 40 39 38 42 41 37 42 41 45 46 41 39 39 39 38 38 39 38 38 38
51 51 51 51 51 49 48 48 47 48 44 43 43 45 46 46 44 42 40 39 40 42 43 34 41 39 43 44 41 40 39 38 38 38 38 38 38 38
51 51 51 50 45 40 44 44 45 44 43 39 38 37 36 34 35 39 35 35 33 38 42 38 38 37 39 40 43 40 39 39 38 38 38 38 37 37
48 49 42 44 40 37 42 41 39 43 43 43 42 38 36 39 33 37 38 33 34 33 41 36 37 37 32 39 41 42 41 39 39 39 39 39 38 41
44 46 48 39 37 36 37 41 40 43 40 38 41 43 42 42 42 40 40 38 35 35 41 37 35 35 34 33 37 39 40 39 40 40 39 38 38 39
39 43 44 40 38 36 36 37 36 35 36 35 35 37 38 39 42 42 42 42 42 39 40 39 33 33 32 31 32 37 37 39 39 38 39 40 39 39
38 39 36 36 35 34 34 34 33 35 34 33 33 35 37 39 40 39 40 41 40 39 39 38 35 35 34 31 32 34 34 37 39 38 38 38 38 38
36 39 36 34 34 35 35 37 37 35 34 34 34 37 38 36 35 37 34 35 33 35 39 38 36 34 32 34 34 33 35 31 37 37 36 35 38 35
30 33 35 36 37 37 37 35 35 35 33 34 34 33 33 35 33 35 34 34 32 33 35 37 38 37 36 34 30 32 33 34 35 34 35 35 36 34
32 32 32 33 34 37 37 35 34 33 36 35 34 34 33 32 32 34 34 31 32 33 34 36 35 34 35 37 36 33 32 33 35 36 36 33 34 35
30 30 30 31 33 37 38 36 33 33 34 33 33 33 32 32 31 32 32 31 31 33 35 35 33 31 28 26 35 32 31 32 32 33 34 33 32 34
28 27 27 29 30 31 37 37 34 33 31 32 33 33 32 32 31 30 31 30 31 33 33 35 34 33 29 27 26 31 32 30 31 30 31 33 38 35
24 25 25 26 27 25 30 34 32 32 32 31 32 32 31 31 30 31 31 31 31 32 31 32 36 29 33 33 27 29 33 31 30 30 31 31 32 36
22 22 22 23 24 24 24 29 33 32 32 32 31 31 31 31 30 31 31 30 30 31 33 35 35 34 33 31 29 29 32 34 33 31 29 28 29 28
20 20 20 21 22 22 21 23 26 32 33 33 32 32 31 30 31 31 31 31 30 31 32 31 33 34 32 32 30 30 29 31 32 32 32 29 29 29
MSLP
1024.91 1025.14 1025.51 1025.13 1025.23 1025.08 1025.06 1025.13 1025.11 1024.58 1024.03 1023.83 1024.01 1024.48 1025.14 1025.34 1025.49 1025.97 1026.06 1025.70 1025.94 1026.00 1025.80 1025.61 1025.27 1024.82 1024.38 1024.00 1023.60 1023.18 1022.76 1022.37 1021.88 1021.41 1021.03 1020.46 1020.09 1019.69
1025.49 1025.56 1025.02 1025.00 1025.02 1025.07 1024.91 1024.97 1024.84 1024.64 1023.90 1023.91 1023.84 1023.95 1024.47 1024.84 1025.11 1025.47 1025.36 1025.31 1024.97 1024.85 1024.87 1024.84 1024.60 1024.30 1023.92 1023.52 1023.13 1022.76 1022.43 1022.05 1021.63 1021.19 1020.70 1020.13 1019.63 1019.16
1025.53 1025.06 1024.76 1024.56 1024.49 1024.59 1024.50 1024.54 1024.49 1024.25 1023.84 1023.37 1023.46 1023.47 1024.00 1024.77 1024.76 1024.58 1024.53 1024.33 1023.89 1023.83 1023.96 1024.00 1023.91 1023.68 1023.25 1022.81 1022.49 1022.15 1021.77 1021.35 1020.98 1020.60 1020.20 1019.76 1019.28 1018.83
1024.87 1024.51 1024.24 1024.07 1023.94 1024.23 1024.01 1024.01 1024.12 1024.00 1023.78 1023.17 1023.19 1023.23 1023.24 1023.61 1024.11 1024.22 1024.03 1023.76 1023.42 1023.11 1023.31 1023.36 1023.25 1022.83 1022.44 1022.14 1021.80 1021.47 1021.12 1020.80 1020.42 1020.07 1019.72 1019.33 1018.92 1018.49
1024.19 1023.87 1023.44 1023.35 1023.31 1023.47 1023.42 1023.64 1023.51 1023.32 1023.36 1023.30 1022.96 1023.03 1022.92 1023.01 1023.29 1023.30 1023.29 1023.08 1022.71 1022.41 1022.34 1022.12 1022.06 1021.92 1021.74 1021.44 1021.13 1020.77 1020.39 1020.04 1019.75 1019.41 1019.08 1018.77 1018.46 1018.20
1023.79 1023.48 1023.04 1022.83 1022.86 1022.85 1022.81 1023.05 1023.25 1023.02 1022.88 1022.78 1022.49 1022.39 1022.35 1022.32 1022.62 1022.63 1022.31 1022.22 1021.90 1021.65 1021.33 1021.13 1021.23 1020.81 1020.57 1020.23 1019.96 1019.72 1019.48 1019.25 1018.99 1018.68 1018.36 1018.06 1017.78 1017.59
1023.04 1022.59 1022.31 1022.29 1022.45 1022.32 1022.28 1022.01 1022.38 1022.60 1022.59 1022.20 1021.95 1021.82 1021.63 1021.54 1021.60 1021.77 1022.05 1021.81 1021.43 1021.14 1020.59 1020.19 1020.02 1019.56 1019.01 1018.76 1018.56 1018.53 1018.66 1018.65 1018.35 1018.01 1017.63 1017.25 1016.99 1016.80
1022.23 1022.07 1021.77 1021.76 1021.96 1022.24 1022.20 1022.25 1022.34 1022.18 1022.15 1021.98 1021.86 1021.61 1021.18 1021.16 1021.38 1021.67 1021.73 1021.44 1020.79 1020.66 1020.33 1019.93 1019.76 1018.96 1018.47 1017.99 1017.89 1018.28 1018.30 1017.95 1017.63 1017.28 1016.85 1016.49 1016.20 1016.02
1021.75 1021.39 1021.11 1020.89 1021.11 1021.50 1021.66 1021.95 1022.15 1022.17 1022.43 1022.19 1021.66 1021.23 1020.79 1020.97 1021.15 1021.43 1021.51 1021.20 1020.67 1020.44 1020.44 1019.47 1019.29 1018.60 1018.13 1017.49 1017.45 1017.65 1017.59 1017.33 1017.10 1016.69 1016.21 1015.82 1015.59 1015.37
1021.16 1020.89 1020.62 1020.31 1020.20 1020.39 1020.72 1020.55 1020.60 1020.70 1021.22 1021.41 1021.24 1020.71 1020.53 1020.71 1021.05 1021.48 1021.48 1021.22 1020.68 1020.01 1019.70 1019.00 1018.80 1018.17 1017.71 1017.33 1016.98 1016.86 1016.82 1016.85 1016.51 1016.10 1015.69 1015.28 1014.88 1014.56
1020.54 1020.20 1019.87 1019.62 1019.60 1019.87 1020.29 1019.94 1019.66 1019.52 1019.81 1020.24 1020.41 1020.67 1021.00 1021.40 1021.76 1021.65 1021.18 1020.72 1019.93 1019.35 1019.07 1018.74 1018.50 1017.98 1017.58 1016.88 1016.11 1016.29 1016.36 1016.04 1015.67 1015.33 1014.93 1014.50 1014.14 1013.74
1020.01 1019.47 1019.16 1019.19 1019.26 1019.28 1019.46 1019.39 1019.00 1018.55 1018.76 1019.04 1019.73 1020.14 1020.69 1020.58 1021.34 1021.45 1020.79 1020.19 1019.58 1018.95 1018.47 1018.68 1018.26 1018.05 1017.02 1016.73 1016.17 1015.90 1015.48 1015.17 1014.83 1014.41 1013.97 1013.56 1013.22 1012.64
1019.45 1018.79 1018.44 1018.36 1018.41 1018.59 1018.77 1018.54 1018.11 1018.18 1018.31 1018.75 1018.66 1018.17 1018.46 1018.80 1019.16 1019.76 1019.93 1019.54 1019.08 1018.52 1018.34 1018.75 1018.44 1017.95 1017.31 1016.33 1015.93 1015.56 1015.16 1014.59 1014.19 1013.68 1013.14 1012.82 1012.43 1012.02
1019.60 1018.71 1018.13 1017.94 1017.73 1017.62 1017.77 1017.61 1017.62 1017.80 1018.09 1018.06 1018.08 1017.79 1017.57 1017.91 1018.05 1018.11 1018.30 1018.42 1018.44 1018.41 1018.42 1018.47 1018.21 1017.82 1017.04 1016.20 1015.46 1015.02 1014.73 1014.15 1013.63 1013.04 1012.43 1011.90 1011.44 1010.87
1019.72 1018.71 1018.13 1017.68 1017.46 1017.14 1016.87 1016.82 1016.90 1016.96 1017.06 1017.10 1016.94 1016.87 1016.96 1017.20 1017.43 1017.66 1017.83 1017.92 1018.07 1018.14 1018.12 1018.17 1017.97 1017.50 1016.99 1016.16 1015.25 1014.69 1014.20 1013.55 1012.97 1012.49 1012.00 1011.62 1011.03 1010.22
1019.05 1017.94 1017.48 1017.02 1016.49 1016.16 1015.73 1015.37 1015.44 1015.61 1015.80 1015.86 1015.90 1015.85 1016.22 1016.60 1016.81 1017.06 1017.33 1017.36 1017.55 1017.36 1017.24 1017.39 1017.50 1017.31 1016.64 1015.98 1015.32 1014.43 1013.99 1013.50 1012.82 1012.39 1012.01 1011.30 1010.39 1009.93
1019.04 1017.72 1016.60 1015.82 1015.07 1014.52 1014.26 1014.32 1014.22 1014.42 1014.69 1014.90 1015.11 1015.29 1015.41 1015.67 1016.19 1016.48 1016.75 1016.84 1016.78 1016.57 1016.24 1016.26 1016.27 1016.30 1016.04 1015.60 1014.93 1014.36 1013.75 1013.10 1012.72 1012.41 1011.70 1010.67 1010.13 1009.99
1017.69 1016.64 1015.74 1015.08 1014.38 1013.64 1013.15 1013.13 1013.25 1013.35 1013.51 1013.80 1014.21 1014.48 1014.63 1014.93 1015.34 1015.69 1015.93 1016.26 1016.06 1015.82 1015.68 1015.64 1015.63 1015.40 1014.94 1014.11 1014.23 1013.97 1013.83 1013.31 1012.78 1012.06 1011.41 1010.65 1010.06 1009.92
1017.73 1016.90 1015.91 1014.93 1013.86 1012.87 1012.24 1012.19 1012.38 1012.50 1012.97 1013.27 1013.50 1013.64 1013.91 1014.17 1014.57 1014.82 1015.15 1015.53 1015.49 1015.35 1015.19 1015.20 1015.27 1015.06 1014.56 1014.04 1013.88 1014.34 1014.03 1013.58 1013.02 1012.18 1011.62 1011.10 1010.39 1010.09
1018.47 1017.65 1016.75 1015.76 1014.68 1013.73 1011.97 1011.20 1011.47 1011.95 1012.40 1012.66 1012.78 1012.94 1013.19 1013.46 1013.67 1014.06 1014.34 1014.69 1014.83 1014.78 1014.67 1014.74 1014.66 1014.61 1014.64 1014.53 1014.46 1014.12 1014.02 1013.88 1013.28 1012.63 1011.95 1011.40 1010.21 1010.03
1019.18 1018.45 1017.63 1016.56 1015.41 1014.32 1012.11 1010.56 1010.98 1011.33 1011.63 1011.97 1012.18 1012.34 1012.50 1012.68 1012.94 1013.31 1013.66 1013.97 1014.34 1014.36 1014.22 1014.17 1014.15 1015.12 1015.03 1014.69 1014.30 1013.52 1013.10 1013.53 1013.62 1013.29 1012.60 1011.60 1010.67 1009.85
1019.84 1019.13 1018.30 1017.41 1016.36 1015.21 1013.82 1011.93 1010.75 1010.93 1011.12 1011.32 1011.48 1011.67 1011.81 1012.07 1012.35 1012.69 1013.06 1013.41 1013.92 1014.04 1013.84 1013.87 1014.18 1014.29 1014.06 1013.72 1013.40 1013.23 1012.89 1012.95 1012.99 1013.10 1013.12 1012.91 1012.31 1011.45
1020.34 1019.69 1018.89 1017.94 1017.01 1016.07 1015.07 1013.88 1012.50 1010.95 1010.76 1010.85 1011.00 1011.07 1011.21 1011.51 1011.84 1012.21 1012.56 1012.97 1013.37 1013.52 1013.65 1013.74 1013.75 1013.81 1013.69 1013.47 1013.44 1013.12 1013.09 1012.75 1012.49 1012.39 1012.45 1012.61 1012.62 1012.43
Wind_Speed
3 4 8 6 5 6 5 5 6 8 8 7 6 6 5 8 6 9 13 15 14 18 17 18 19 20 21 22 22 23 23 24 24 24 24 25 25 24
2 11 9 7 7 7 6 6 7 8 11 8 8 9 7 8 9 9 13 14 17 13 15 17 19 20 21 22 22 23 24 23 23 24 25 26 25 25
10 11 12 11 8 8 7 7 8 8 11 9 9 10 8 10 12 11 11 12 11 12 12 17 19 20 21 22 22 22 21 21 21 22 21 23 25 25
14 13 12 9 11 11 9 10 10 11 10 15 11 10 12 9 11 12 11 10 12 13 14 18 20 21 20 19 19 20 20 21 22 22 22 22 23 25
11 14 13 12 13 11 11 9 11 10 9 11 12 10 10 8 11 10 11 12 10 14 15 16 14 17 18 20 21 22 22 22 21 21 21 21 22 22
12 13 14 14 15 15 13 10 11 11 11 11 11 10 10 9 8 10 10 9 10 10 12 12 13 18 20 21 20 20 20 19 19 20 20 19 18 20
13 14 14 15 16 14 12 14 12 10 10 11 11 10 10 10 9 8 10 10 10 10 9 9 10 11 11 12 15 18 12 17 20 21 22 22 20 20
13 14 15 14 14 14 13 12 12 14 14 10 10 12 14 10 9 8 9 10 11 8 9 11 10 11 11 10 6 11 17 19 19 19 20 21 21 20
14 13 13 11 9 14 17 14 12 12 10 14 14 14 13 11 10 10 11 11 11 10 11 12 10 11 10 11 8 14 18 16 15 18 19 17 18 18
14 15 15 15 14 12 14 14 16 15 14 13 15 16 12 10 9 10 11 12 12 10 10 12 10 10 10 11 16 15 12 11 18 17 18 18 17 18
15 15 16 15 13 11 13 16 16 14 11 10 9 8 4 3 8 9 9 10 10 10 9 9 8 11 11 11 8 4 11 17 13 17 20 19 19 19
15 17 13 15 14 11 13 15 15 17 12 13 12 13 13 13 14 12 10 10 10 10 7 7 9 11 10 9 7 11 9 14 14 17 17 18 18 11
12 12 11 11 17 17 18 15 17 14 12 11 13 10 10 10 9 12 13 11 10 10 6 7 9 10 10 12 10 10 10 10 10 11 14 14 16 14
13 12 14 14 14 16 15 20 18 10 8 8 9 11 9 9 9 10 12 10 9 12 11 10 9 10 11 12 12 10 9 9 8 10 8 12 16 17
13 17 22 22 22 15 19 20 13 10 9 9 11 11 10 9 10 9 9 10 11 11 9 11 9 10 10 12 13 11 10 10 10 8 8 10 11 12
17 14 15 16 16 16 13 13 11 9 9 11 11 10 9 8 8 8 8 8 8 8 9 8 10 10 10 10 11 11 10 8 10 8 8 9 9 7
19 13 13 12 13 12 11 10 8 9 10 9 10 9 9 9 8 8 8 8 8 9 7 6 8 9 10 13 10 10 9 9 8 8 10 10 7 7
12 11 11 11 13 14 12 11 10 9 10 9 9 9 9 9 9 9 8 8 9 8 7 6 6 7 8 8 13 7 7 8 8 10 9 9 6 6
10 12 12 13 12 13 12 10 8 8 7 7 9 10 10 9 9 9 8 8 9 7 7 5 6 6 8 7 2 8 6 7 8 8 8 8 9 5
12 13 12 13 12 15 14 10 8 7 6 7 9 9 8 9 8 9 9 9 9 7 6 6 6 5 6 6 6 9 9 6 7 8 8 8 8 6
11 12 12 13 14 13 16 4 6 7 6 6 8 8 8 9 8 9 9 11 9 7 7 6 4 4 6 6 6 7 2 9 3 6 9 8 7 5
11 12 13 13 13 13 13 13 5 5 6 7 7 7 7 8 8 9 9 8 8 8 7 4 4 5 5 6 6 6 5 3 6 8 1 5 5 6
11 12 12 12 12 12 13 14 14 4 4 5 6 8 7 8 8 9 8 8 7 7 6 5 4 4 5 5 6 6 6 6 4 4 4 4 1 3
Wind_Direction
238 234 258 259 254 251 264 283 282 292 291 304 291 282 263 267 278 287 291 294 315 295 292 296 294 292 292 293 293 294 293 291 292 293 293 290 285 286
278 250 246 251 246 251 252 257 267 277 284 294 297 295 296 287 280 285 281 292 280 278 283 287 290 294 295 294 290 290 290 289 288 288 286 285 285 285
239 246 245 248 246 250 246 259 274 273 277 278 283 291 259 274 286 285 291 293 289 284 291 293 296 297 293 289 289 288 287 289 291 289 287 284 282 281
245 254 251 254 244 252 257 255 261 264 275 285 290 289 283 276 288 288 285 290 289 288 297 295 291 289 287 286 286 287 287 287 287 287 288 286 284 282
259 257 258 262 256 249 251 248 257 259 267 274 282 283 283 279 271 279 286 290 279 284 267 267 278 283 287 285 286 284 283 282 284 285 285 283 281 280
262 263 263 264 263 254 253 246 265 271 268 268 273 280 278 278 279 276 278 292 293 299 286 260 259 270 264 265 271 278 279 281 284 288 286 283 279 276
263 267 268 265 263 261 262 250 247 260 266 268 272 276 277 275 277 299 292 288 293 293 294 290 307 298 294 281 263 257 281 298 293 287 284 280 274 273
277 272 274 253 246 247 243 256 266 267 262 267 272 273 276 281 281 285 285 290 293 297 305 303 301 300 301 287 323 314 294 296 294 292 289 282 276 275
273 278 275 270 241 259 224 228 238 240 243 264 263 265 277 278 283 282 276 279 289 304 299 294 301 299 304 299 277 302 295 292 292 305 300 286 273 272
270 274 277 276 271 243 255 242 242 246 232 235 248 264 270 269 271 279 286 283 276 279 287 292 304 297 307 303 295 280 287 291 303 305 306 298 283 274
278 276 272 270 269 203 245 259 260 256 238 222 258 292 297 249 266 283 271 273 279 287 297 292 300 308 308 302 302 352 301 293 285 296 294 292 284 281
280 277 255 251 275 202 234 250 255 259 256 246 224 233 241 241 224 242 259 265 274 283 286 278 306 306 309 300 298 307 304 297 288 281 292 295 284 278
285 280 275 237 229 239 231 244 245 257 256 248 253 232 229 235 232 214 235 248 265 276 309 306 296 297 291 301 306 302 302 297 299 298 292 294 290 274
296 290 285 283 247 236 238 245 249 232 247 235 233 245 233 233 239 238 242 248 257 272 290 284 284 286 295 298 300 307 300 293 293 298 301 291 281 281
301 294 283 280 281 268 251 252 241 229 230 228 228 232 233 229 237 242 252 261 264 274 274 274 273 283 287 291 299 304 306 305 299 309 315 316 309 298
300 293 298 289 272 267 261 236 228 223 225 228 232 229 227 219 222 230 242 240 245 266 268 262 272 278 281 287 292 297 303 296 305 317 313 297 300 320
297 283 280 278 275 268 254 237 226 214 220 223 231 223 217 209 216 225 228 241 248 262 271 268 260 268 274 278 279 282 295 306 319 313 308 309 325 350
300 286 281 274 271 273 265 243 222 218 231 218 226 225 217 207 211 221 218 230 243 257 268 278 283 288 286 265 232 285 302 308 321 319 324 324 335 356
337 331 330 327 297 276 269 248 223 212 217 225 230 228 217 214 200 216 212 219 239 251 263 270 273 281 294 305 332 239 306 316 316 322 333 339 315 349
340 335 328 327 325 321 294 241 215 211 212 224 232 227 214 214 202 208 220 217 229 241 254 260 257 267 283 307 307 304 217 280 322 327 335 321 300 270
334 331 330 328 331 328 313 193 200 209 212 219 228 225 215 206 203 211 217 216 216 240 250 257 272 56 272 258 258 258 330 201 254 325 334 331 337 349
329 327 328 328 329 332 327 325 216 218 226 229 221 224 210 199 206 213 208 200 206 238 250 262 264 264 266 265 275 297 307 346 226 219 264 2 347 351
326 325 324 324 329 334 336 334 334 283 260 243 237 231 199 196 201 208 205 207 212 221 237 251 254 257 265 278 293 290 301 301 305 296 195 144 328 325